SCP
0 0 0 0 0 0 0 0 0 0 0 0 0 0 0 0 0 0 0 0 0 0 0 0 0 0 0 0 0 0 0 0 0 0 0 0 0 0 0 0 0 0 0
0 0 0 0 0 0 0 0 0 0 0 0 0 0 0 0 0 0 0 0 0 0 0 0 0 0 0 0 0 0 0 0 0 0 0 0 0 0 0 0 0 0 0
0 0 0 0 0 0 0 0 0 0 0 0 0 0 0 0 0 0 0 0 0 0 0 0 0 0 0 0 0 0 0 0 0 0 0 0 0 0 0 0 0 0 0
0 0 0 0 0 0 0 0 0 0 0 0 0 0 0 0 0 0 0 0 0 0 0 0 0 0 0 0 0 0 0 0 0 0 0 0 0 0 0 0 0 0 0
0 0 0 0 0 0 0 0 0 0 0 0 0 0 0 0 0 0 0 0 0 0 0 0 0 0 0 0 0 0 0 0 0 0 0 0 0 0 0 0 0 0 0
0 0 0 0 0 0 0 0 0 0 0 0 0 0 0 0 0 0 0 0 0 0 0 0 0 0 0 0 0 0 0 0 0 0 0 0 0 0 0 0 0 0 0
0 0 0 0 0 1 1 1 1 0 0 0 0 0 0 0 0 0 0 0 0 0 0 0 0 0 0 0 0 0 0 0 0 0 0 0 0 0 0 0 0 0 0
0 0 0 0 0 0 1 1 1 0 0 0 0 0 0 0 0 0 0 0 0 0 0 0 0 0 0 0 0 0 0 0 0 0 0 0 0 0 0 0 0 0 0
0 0 0 0 0 0 0 0 0 0 0 0 0 0 0 0 0 0 0 0 0 0 0 0 1 1 0 0 0 0 0 0 0 0 0 0 0 0 0 0 0 0 0
0 0 0 0 0 0 0 0 0 0 0 0 0 0 0 0 0 0 0 0 0 0 1 1 1 1 1 1 1 0 0 0 0 0 0 0 0 0 0 0 0 0 0
0 0 0 0 0 0 0 0 0 0 0 0 0 0 0 0 0 0 0 0 1 1 1 1 1 1 1 1 1 1 1 0 0 0 0 0 0 1 1 1 1 0 0
1 1 0 0 0 0 0 0 0 0 0 0 0 0 1 1 1 0 0 0 1 1 1 1 1 1 1 1 1 1 1 1 0 0 0 0 0 1 1 1 1 1 1
1 1 1 1 1 1 1 1 0 0 0 1 1 1 1 1 1 1 1 1 1 1 1 1 1 1 1 1 1 1 1 1 1 0 0 0 1 1 1 1 1 1 1
2 2 2 1 1 1 1 1 1 1 1 1 1 1 1 1 1 1 1 1 1 1 1 1 1 1 1 1 1 1 1 1 1 0 0 0 1 1 1 1 1 1 1
2 2 2 1 1 1 1 1 1 1 1 1 1 1 1 1 1 1 1 0 1 1 1 1 1 1 1 1 1 1 1 1 1 0 0 0 1 1 1 1 1 1 1
1 1 1 1 1 1 1 1 1 1 1 1 1 1 1 1 1 1 0 0 0 0 1 1 1 1 1 1 1 1 1 1 1 0 0 0 1 1 1 1 1 1 1
1 1 1 1 1 0 0 0 0 0 0 1 1 1 1 1 1 0 0 0 0 0 0 0 0 -0 0 0 0 1 1 1 0 0 0 0 1 1 1 1 1 1 1
0 0 0 0 0 0 0 0 0 0 0 0 0 0 0 0 0 0 0 0 0 0 0 0 -0 -1 -0 0 0 0 0 0 0 0 0 0 0 1 1 1 1 1 1
0 0 0 0 0 0 0 0 0 0 0 0 0 0 0 0 0 0 0 0 0 0 0 0 -0 -1 -0 0 0 0 0 0 0 0 0 0 0 0 0 0 1 1 1
0 0 0 0 0 0 0 0 0 0 0 0 0 0 0 0 0 0 0 0 0 0 0 0 0 0 0 0 0 0 0 0 0 0 0 0 0 0 0 0 0 0 1
0 0 0 0 0 0 0 0 0 0 0 0 0 0 0 0 0 0 0 0 0 0 0 0 0 0 0 0 0 0 0 0 0 0 0 0 0 0 0 0 0 0 0
0 0 0 0 0 0 0 0 0 0 0 0 0 0 0 0 0 0 0 0 0 0 0 0 0 0 0 0 0 0 0 0 0 0 0 0 0 0 0 0 0 0 0
0 0 0 0 0 0 0 0 0 0 0 0 0 0 0 0 0 0 0 0 0 0 0 0 0 0 0 0 0 0 0 0 0 0 0 0 0 0 0 0 0 0 0
0 0 0 0 0 0 0 0 0 0 0 0 0 0 0 0 0 0 0 0 0 0 0 0 0 0 0 0 0 0 0 0 0 0 0 0 0 0 0 0 0 0 0
0 0 0 0 0 0 0 0 0 0 0 0 0 0 0 0 0 0 0 0 0 0 0 0 0 0 0 0 0 0 0 0 0 0 0 0 0 0 0 0 0 0 0
0 0 0 0 0 0 0 0 0 0 0 0 0 0 0 0 0 0 0 0 0 0 0 0 0 0 0 0 0 0 0 0 0 0 0 0 0 0 0 0 0 0 1
Wind_Speed
9 10 16 16 17 17 16 15 15 15 15 15 15 15 16 16 16 16 15 15 14 13 12 12 11 10 11 11 12 13 13 14 14 15 15 15 14 13 14 15 14 11 16
14 13 16 16 16 16 16 15 15 15 14 14 14 14 14 14 14 14 14 13 13 12 12 11 11 10 10 11 11 12 12 12 13 14 14 13 13 13 14 14 14 10 16
16 12 14 15 15 16 16 15 15 15 14 14 13 13 13 13 13 12 12 12 11 11 11 11 10 10 10 10 10 10 11 11 12 13 12 6 7 13 14 15 15 15 15
15 10 12 16 15 15 15 15 14 14 14 13 13 13 12 12 12 11 11 10 10 11 11 11 10 10 10 10 9 9 9 9 10 11 5 4 5 13 15 15 15 15 15
11 9 12 17 16 15 15 14 13 14 13 13 13 12 12 12 11 11 11 10 10 10 10 10 10 10 10 9 9 8 8 8 9 7 4 4 4 13 15 15 15 15 14
11 9 12 17 16 15 15 14 13 13 13 12 12 12 12 11 11 11 10 10 10 10 10 11 10 10 10 9 8 8 8 8 6 3 4 6 5 13 15 15 15 14 14
11 8 11 16 16 15 14 13 13 12 12 11 11 11 11 11 10 10 10 10 10 10 10 11 11 11 10 10 9 8 8 8 4 3 4 6 7 13 16 15 15 14 14
13 9 9 16 16 15 14 13 13 12 12 11 11 10 10 10 10 10 10 10 10 10 10 11 12 12 11 11 10 9 8 8 5 4 5 6 10 14 16 16 15 15 14
11 9 6 7 10 13 14 13 13 12 11 11 10 10 10 10 10 10 10 11 12 12 12 12 12 13 13 12 11 10 10 10 4 2 5 5 12 16 18 17 16 16 15
9 7 6 5 5 5 7 12 12 11 11 11 10 10 10 10 10 11 10 11 13 13 13 14 14 14 13 13 13 12 12 10 4 3 3 6 15 18 19 19 18 17 16
9 6 5 5 4 4 4 8 9 10 10 10 8 10 9 4 5 6 9 12 14 15 15 15 15 15 14 14 15 14 11 4 4 3 3 8 16 20 20 20 19 19 18
8 7 5 5 5 5 5 4 3 4 4 5 4 5 4 3 4 7 8 14 16 17 17 17 16 15 12 6 10 13 5 5 5 5 6 12 16 20 21 21 20 20 20
6 7 5 3 3 4 2 3 2 2 2 4 4 5 3 3 3 4 3 6 8 12 9 10 11 8 7 6 5 5 6 6 5 5 6 12 16 21 22 22 22 21 21
8 7 5 4 4 4 3 2 1 1 1 1 2 3 2 1 2 3 3 3 3 3 5 5 5 7 8 8 8 8 8 6 6 5 7 14 15 20 22 22 22 22 21
7 7 6 6 5 4 3 2 2 2 1 1 1 1 2 2 2 2 2 2 3 3 3 4 5 7 8 9 9 10 10 10 9 7 6 14 15 18 21 22 22 22 21
7 6 6 6 4 5 4 3 2 2 2 2 1 1 2 1 0 1 2 2 2 2 3 3 5 6 6 7 10 11 11 10 9 9 7 9 15 17 20 21 22 22 22
5 4 5 6 5 6 5 4 3 2 2 2 2 2 2 2 1 1 1 2 2 2 2 2 3 4 5 6 9 10 9 9 9 9 8 6 7 15 20 21 21 21 21
5 5 5 6 6 6 5 5 4 3 3 2 2 1 2 2 2 1 1 2 2 2 2 2 3 3 4 5 5 6 7 6 9 9 7 7 6 7 14 21 22 21 22
5 5 5 5 5 5 4 4 4 3 3 2 1 1 1 1 1 1 1 2 2 2 2 3 2 2 3 4 4 5 5 6 7 9 8 8 8 8 8 14 21 22 24
5 5 4 4 4 4 3 3 3 4 3 3 2 2 1 1 0 0 1 2 2 2 2 2 3 3 3 4 5 5 5 6 6 7 9 9 8 10 10 11 10 14 23
4 4 4 4 3 2 2 2 2 2 3 3 3 3 2 2 2 1 2 2 2 2 3 3 2 3 3 2 2 3 4 5 6 7 7 7 9 10 10 11 9 8 9
5 5 5 4 3 2 2 1 1 1 2 1 2 3 3 3 4 3 3 3 2 2 3 3 2 2 2 2 1 2 2 2 5 8 7 8 9 8 10 12 10 10 8
6 6 6 5 4 3 2 1 1 2 3 3 3 3 4 5 5 5 5 4 3 2 2 3 2 2 3 2 2 2 2 2 2 3 6 7 7 7 9 8 11 12 11
6 5 5 5 4 3 3 2 2 1 1 3 2 3 5 5 6 5 5 4 3 3 3 3 2 2 2 3 2 2 3 2 2 3 2 4 6 7 8 9 10 10 10
4 4 4 4 3 3 3 3 2 1 2 3 3 4 5 5 5 5 4 3 3 3 3 3 2 2 2 2 2 2 2 2 3 2 3 2 2 4 6 7 7 8 10
3 3 4 4 2 2 2 2 2 3 3 3 4 4 4 3 4 6 5 3 3 3 4 4 4 3 3 3 2 2 2 2 2 1 2 2 3 3 4 5 7 7 7
Wind_Direction
150 156 148 141 136 132 129 127 124 121 118 115 114 113 113 114 115 118 120 123 126 128 127 125 121 116 114 114 114 115 117 118 119 120 120 118 116 117 117 115 112 111 114
149 152 146 141 138 135 133 132 131 128 125 122 121 120 120 120 121 123 125 128 130 132 132 130 127 123 121 120 121 122 124 125 125 124 120 115 115 121 123 119 117 122 122
141 144 142 139 137 135 135 135 135 134 132 130 129 128 128 128 129 131 133 136 137 138 139 138 136 133 131 131 131 131 130 130 129 124 116 107 113 122 126 124 124 124 124
136 135 139 137 136 134 134 136 138 139 139 138 138 138 138 139 141 142 144 146 149 149 149 149 148 145 144 144 143 143 142 141 140 133 125 134 124 125 129 129 129 129 128
130 130 141 137 136 134 134 137 140 143 145 146 147 149 150 152 155 156 157 160 163 163 161 160 158 157 156 157 158 159 159 159 161 153 153 151 132 137 136 137 136 135 134
128 130 141 138 137 136 137 139 142 145 149 152 156 158 161 164 168 169 171 174 177 176 174 171 169 167 169 171 174 177 177 179 176 153 150 151 152 150 146 146 144 143 142
133 137 142 141 141 140 141 142 145 148 153 157 161 165 169 173 177 180 181 185 189 190 188 182 180 179 180 184 190 195 197 199 184 165 166 166 172 160 155 154 152 151 151
139 139 142 146 146 145 146 148 151 155 160 165 170 174 178 181 186 190 193 195 199 201 200 195 191 189 190 194 200 207 213 218 207 190 177 177 181 169 163 161 160 160 159
135 136 136 147 150 153 155 158 161 163 167 173 178 184 189 193 198 204 206 207 209 210 209 206 203 199 198 200 205 213 222 228 223 188 194 184 189 178 172 168 168 167 167
129 138 140 143 147 153 160 168 170 173 178 184 189 194 199 206 212 218 219 219 219 218 217 215 212 209 207 207 209 215 225 234 233 216 210 200 194 186 180 176 175 175 175
133 139 144 150 154 157 166 180 178 182 190 194 201 207 209 216 225 232 234 231 231 229 226 222 218 216 214 215 216 218 224 223 222 226 217 216 201 195 188 184 182 181 181
132 141 148 157 167 173 185 174 185 196 198 200 203 215 210 209 224 234 238 241 240 238 235 229 226 222 219 216 221 220 218 216 221 228 227 224 210 203 194 189 188 186 186
106 116 121 124 132 148 146 145 184 205 203 212 214 217 214 217 235 243 243 253 251 246 240 234 230 225 220 213 213 214 215 217 224 229 231 228 214 207 201 195 192 192 190
92 91 91 89 81 85 99 130 157 178 190 199 209 206 190 212 242 251 249 252 249 244 234 230 224 223 224 221 219 220 220 220 223 224 233 235 220 211 207 201 197 196 194
83 76 69 65 64 70 71 57 64 57 81 112 129 161 155 179 240 262 269 272 268 253 240 235 230 231 230 228 225 225 225 225 225 222 230 235 225 213 207 203 202 202 201
82 83 78 71 61 63 62 58 55 53 56 57 58 82 117 137 186 290 298 296 287 271 252 242 237 236 235 233 231 227 226 226 228 224 223 233 227 215 210 207 204 205 207
80 78 82 74 58 54 45 38 45 39 45 41 36 57 79 91 81 16 322 312 304 297 284 263 256 247 244 240 237 232 228 227 230 227 222 222 225 221 214 209 208 209 210
92 78 67 72 60 53 44 35 30 31 36 30 20 37 53 67 69 48 357 320 307 299 288 272 256 250 252 246 240 235 230 228 234 232 225 224 219 221 219 217 214 213 213
119 110 93 80 72 65 53 44 35 28 21 3 354 353 16 51 74 65 359 314 318 313 299 290 280 257 261 258 251 238 227 229 233 237 233 228 221 217 218 223 221 217 217
145 136 121 102 89 80 57 40 26 17 1 349 331 294 288 291 326 37 299 301 308 304 296 286 282 277 261 261 265 259 237 230 226 229 232 229 222 220 219 222 222 223 221
164 153 148 138 129 102 69 54 30 353 334 337 329 316 312 301 296 288 286 291 294 281 281 284 279 284 277 265 270 273 251 232 231 231 226 223 224 223 219 220 216 217 221
183 176 168 165 158 145 139 146 165 231 291 298 332 340 323 308 296 288 266 263 265 270 294 295 277 282 279 270 262 276 275 255 237 235 228 224 224 220 220 220 216 215 216
194 189 179 176 167 164 147 105 36 17 354 352 342 327 316 308 297 287 271 256 245 230 251 267 261 266 280 286 257 243 254 253 271 248 228 227 219 214 218 216 214 213 212
199 185 173 170 165 167 153 140 150 177 268 266 271 287 303 309 309 304 292 273 247 231 238 255 248 240 262 283 290 264 253 258 262 293 280 235 224 217 218 219 218 212 210
178 164 160 155 163 175 171 171 178 228 243 266 291 310 313 317 323 327 316 294 265 248 247 253 256 252 237 248 262 279 282 269 241 246 286 296 270 234 222 217 213 208 206
116 121 134 143 170 196 196 206 214 245 262 285 303 309 310 312 316 323 325 319 296 274 259 256 252 255 251 251 252 249 254 273 275 254 266 284 274 260 236 220 213 208 204